Vertical_Velocity
2 0 -1 -1 1 -1 -1 0 -1 -1 -1 -2 0 1 0 -0 0 -1 -1 -1 -1 -1 0 0 0 -0 -1 -2 -2 -2 -1 -0 -1 -0 1 0 1 1 1 1 1 1 -0
1 0 0 -0 0 1 -0 -1 1 -0 0 0 -1 -1 -1 -1 -1 -1 -1 -0 -1 -1 0 0 -0 -1 -1 0 0 -1 -2 -2 -1 -1 -1 -0 1 -0 -0 1 1 0 0
1 -2 -0 -1 -1 -0 -0 -1 -0 -1 -1 -1 -1 -1 -1 -0 -1 -0 -0 -1 -0 -1 -2 -1 -1 0 0 0 -0 -0 -1 -1 -2 -1 -1 -1 -0 0 1 1 1 0 0
-1 1 1 -0 -0 -0 -1 -0 -0 -1 -2 -1 -1 -1 -1 -1 -1 -2 -1 0 -1 -1 -2 -1 -2 -1 -2 -1 0 0 0 0 0 -0 -0 -1 0 -3 -1 -0 1 2 2
-2 -0 1 1 -1 -1 -0 -0 -0 -1 -0 -1 -0 -0 -1 -2 -3 -1 -1 -0 0 -1 -0 -0 -0 0 -1 -2 -1 -1 -0 0 1 1 1 0 0 -1 -1 -0 -1 -0 1
0 -1 -1 -1 -1 1 -0 -0 -0 -0 -1 -0 -1 -1 -2 -2 -1 -3 -2 -2 -1 -1 -0 -1 -0 -1 -1 -1 -2 -2 -1 0 -0 -1 -1 -0 2 -2 1 2 1 1 0
-1 -2 -0 -1 -0 -0 0 1 0 0 1 1 0 1 0 -1 -1 -2 -1 -0 -1 -1 0 1 0 -0 -1 -1 -0 -0 -0 -2 -1 -2 -1 -1 -2 -2 -1 -0 1 1 2
-1 -0 -1 -1 -2 -1 -0 -1 -1 -1 -1 -0 -0 -0 -0 -0 -0 0 0 0 -2 -2 -1 -2 -0 1 1 0 -1 -1 -1 -0 0 0 -0 -1 -1 -1 -0 -3 -2 -0 0
-0 -1 -1 -2 -1 -1 -1 -1 -1 -1 -0 0 -0 -1 -1 -0 -0 -1 -0 1 -0 1 0 0 -0 -0 0 1 0 -0 -0 0 2 -0 -1 2 0 -2 -1 -0 -1 -2 -2
-1 -1 -0 -0 0 1 0 1 -0 0 -0 -1 -2 -1 -1 0 1 1 1 0 -1 -1 -1 -2 -2 -0 -0 1 -0 1 1 3 1 1 1 -0 0 -1 -0 0 -0 1 0
-1 -0 -0 0 0 -0 -1 -2 -0 -1 -1 -1 -1 -2 -1 1 -0 -0 -0 -0 -1 -1 -2 -2 0 -1 -3 -1 -1 -2 -3 3 -0 3 1 0 -1 -2 -2 -1 -1 -1 0
-2 -2 0 -0 0 0 -0 -1 -1 -1 -2 -1 0 0 -2 -3 -2 -2 -3 -2 -1 -2 -2 -2 -0 0 -1 1 0 -2 -2 3 -2 -1 2 1 -0 1 -1 -0 0 -0 0
-0 -1 -1 -1 -0 -0 0 0 0 1 -1 -2 -1 -2 -2 -2 -2 -2 -2 -1 -0 -2 -1 -3 -1 -1 0 -0 1 0 -2 -1 -1 -3 -3 3 2 0 2 -0 0 -1 -1
1 -0 -1 -0 -0 -1 -1 -2 -2 -2 -1 -1 -2 -2 -2 -1 -1 -1 -1 -1 -2 -1 -1 -1 -1 -2 -1 -0 -1 1 1 -1 -0 2 2 -2 1 -0 0 0 -1 2 1
1 -1 -1 -0 -1 -0 -1 -2 -2 -3 -2 -3 -1 -5 1 0 -1 -1 -1 -0 -0 0 -0 1 1 1 0 -1 -2 -2 -1 -1 -1 2 0 -1 -2 2 3 2 -2 1 0
-1 -2 -2 -1 0 -0 -2 -2 -1 -4 -2 -3 -0 -1 -1 -0 -1 -0 -1 -1 -2 -2 -1 0 -0 0 -0 -1 -1 -2 -1 -0 0 -2 0 1 -0 1 1 -1 -0 -3 0
-2 -2 -0 -1 -1 -2 -2 -2 -2 -1 -1 -1 -1 0 -1 -1 -2 -2 -3 -4 -2 -3 -2 -2 -1 -0 -1 -2 2 1 -0 -2 -2 -1 -2 -4 1 -0 -1 2 -0 -2 -1
0 -0 -1 -2 -3 -2 -1 -2 -3 -2 1 -2 -2 -2 -1 -1 -2 -2 -2 -1 -1 -1 1 -0 -1 -1 -1 -0 -1 -3 0 1 0 -2 -0 0 -2 -3 2 -0 0 -1 -1
-1 -0 -1 -0 -1 -0 -2 -3 -2 -2 -3 -1 -2 -1 -1 -2 -1 -1 -1 -2 -2 -2 -2 -2 -4 -1 -1 -0 -0 2 0 2 -2 -0 -1 -4 -7 -5 -3 -3 -3 1 -3
-2 -0 3 1 -1 -3 -3 -0 0 -2 -3 -0 -0 -2 -1 -0 -1 -1 -1 -2 -1 -2 -0 -0 -2 -5 1 1 -1 0 1 -2 -2 -6 -2 -6 -5 2 -2 -3 3 5 1
2 5 4 3 -1 -4 1 -2 -1 -1 -0 -1 -1 -2 -1 -1 -0 -2 -3 -2 -2 -2 -2 -1 -3 -5 -8 -3 2 -0 1 -1 0 -2 -9 -3 -5 2 -3 -2 -4 -3 2
3 2 1 -2 2 1 -1 -1 -2 -1 -1 -1 -0 0 -0 -2 -2 -2 -2 -3 -3 -3 -1 -0 -1 -3 -9 -2 6 1 18 -1 -4 -10 -8 -6 -5 2 3 -0 -7 -4 2
-3 -3 1 1 -2 3 -0 -1 -1 -1 -0 1 -0 -0 -0 -1 -1 -0 -1 -1 -2 -2 -2 -1 -1 0 -2 -10 -6 -5 3 7 16 8 -11 -4 -4 0 0 0 2 -2 2
-4 -4 -3 -2 -1 1 -0 0 1 -1 0 -3 -3 -2 -3 -1 -0 -1 -2 -1 -0 -3 -3 -4 -2 -0 1 -0 -11 -9 -9 -10 -4 20 -16 -3 -5 0 1 -3 -0 -1 2
-5 -3 -4 -3 -2 -1 -1 -0 -1 -1 -1 -0 0 0 1 1 0 -2 -2 -2 -4 -4 -5 -4 -4 -3 -0 3 5 0 -6 -9 -7 -6 8 -3 -7 -2 -3 2 -0 -1 -3
-4 -3 -4 -3 -2 -1 -2 -1 -2 -1 -1 -1 -1 -0 -2 -3 -2 -1 -2 -3 -2 -3 -2 -2 -1 -1 -2 -2 1 4 6 6 -3 -4 -1 -6 -7 6 -0 -0 0 -1 -3
Height
5890 5890 5889 5889 5889 5888 5888 5887 5886 5885 5885 5884 5883 5883 5882 5882 5881 5881 5880 5879 5878 5877 5877 5876 5876 5875 5875 5875 5875 5875 5874 5874 5874 5873 5874 5874 5873 5873 5872 5872 5872 5871 5871
5889 5889 5889 5888 5888 5887 5886 5886 5885 5884 5883 5882 5881 5881 5880 5880 5879 5878 5877 5877 5876 5875 5875 5874 5873 5872 5872 5871 5871 5871 5871 5871 5871 5870 5871 5871 5871 5871 5871 5871 5870 5870 5869
5888 5888 5888 5887 5887 5886 5885 5884 5883 5882 5881 5880 5879 5878 5878 5877 5876 5875 5875 5874 5873 5873 5872 5871 5871 5870 5869 5869 5868 5867 5867 5866 5866 5867 5867 5867 5867 5867 5867 5868 5868 5867 5867
5887 5887 5886 5886 5885 5884 5883 5882 5881 5880 5879 5878 5877 5876 5875 5874 5873 5872 5871 5871 5870 5869 5869 5868 5868 5867 5866 5866 5865 5865 5864 5863 5863 5862 5862 5862 5863 5862 5863 5863 5863 5863 5864
5884 5885 5884 5884 5883 5882 5881 5880 5878 5877 5876 5874 5873 5873 5872 5870 5869 5868 5867 5867 5866 5865 5864 5863 5862 5862 5861 5861 5861 5860 5860 5860 5859 5859 5858 5858 5858 5857 5858 5858 5859 5859 5859
5883 5882 5881 5881 5880 5879 5877 5876 5875 5873 5872 5871 5869 5868 5867 5866 5865 5864 5863 5862 5861 5860 5859 5858 5857 5857 5856 5855 5855 5855 5855 5855 5854 5854 5853 5853 5854 5853 5853 5853 5853 5854 5855
5881 5879 5878 5877 5876 5875 5874 5872 5871 5869 5868 5866 5865 5863 5862 5860 5859 5858 5857 5856 5855 5854 5853 5852 5852 5851 5850 5850 5849 5848 5848 5848 5849 5848 5848 5848 5847 5848 5848 5848 5848 5848 5848
5877 5876 5874 5873 5872 5871 5870 5868 5866 5865 5863 5862 5860 5859 5857 5856 5854 5853 5851 5851 5849 5849 5848 5847 5846 5845 5844 5843 5843 5842 5842 5842 5842 5842 5841 5841 5841 5841 5841 5841 5842 5842 5842
5873 5872 5870 5869 5867 5866 5864 5862 5861 5859 5858 5856 5855 5854 5853 5852 5850 5848 5847 5846 5844 5844 5843 5841 5840 5839 5838 5837 5836 5836 5835 5835 5836 5835 5834 5834 5833 5833 5833 5834 5834 5835 5835
5869 5868 5866 5864 5862 5861 5858 5856 5855 5854 5854 5853 5851 5850 5848 5847 5845 5844 5842 5841 5839 5838 5837 5835 5834 5833 5831 5830 5829 5829 5828 5828 5828 5827 5827 5826 5826 5825 5824 5825 5825 5826 5827
5865 5863 5861 5859 5857 5856 5855 5854 5852 5851 5849 5848 5847 5845 5843 5841 5839 5838 5836 5834 5833 5831 5829 5828 5826 5825 5823 5822 5821 5820 5819 5819 5818 5818 5818 5817 5817 5817 5817 5817 5818 5817 5817
5861 5859 5856 5854 5853 5852 5851 5850 5849 5847 5845 5844 5842 5839 5837 5835 5832 5830 5829 5827 5825 5823 5821 5819 5817 5816 5814 5813 5812 5810 5809 5809 5808 5809 5809 5807 5806 5805 5805 5807 5808 5809 5810
5855 5853 5851 5850 5849 5848 5847 5845 5843 5842 5840 5837 5835 5833 5831 5828 5825 5823 5820 5818 5816 5813 5811 5810 5809 5807 5805 5804 5802 5801 5800 5799 5798 5797 5797 5798 5797 5794 5794 5794 5795 5796 5798
5849 5847 5846 5845 5844 5843 5841 5840 5838 5835 5833 5831 5828 5825 5823 5820 5817 5814 5811 5809 5806 5804 5802 5800 5799 5797 5796 5794 5792 5791 5789 5788 5787 5787 5786 5785 5786 5786 5783 5782 5782 5784 5784
5844 5843 5842 5841 5840 5838 5836 5834 5832 5829 5827 5824 5821 5817 5814 5811 5808 5806 5803 5800 5797 5795 5793 5791 5790 5788 5786 5784 5783 5781 5780 5779 5778 5776 5775 5774 5774 5773 5772 5770 5770 5770 5772
5840 5839 5837 5835 5833 5831 5829 5828 5825 5822 5819 5816 5812 5809 5806 5803 5800 5797 5794 5792 5789 5787 5785 5783 5782 5780 5778 5775 5773 5771 5769 5768 5767 5766 5764 5763 5762 5761 5760 5759 5757 5757 5757
5835 5832 5829 5827 5826 5825 5823 5821 5818 5815 5810 5807 5804 5802 5799 5796 5793 5790 5787 5785 5783 5780 5778 5776 5773 5771 5769 5767 5765 5763 5760 5758 5756 5754 5752 5750 5750 5748 5747 5747 5746 5745 5745
5828 5825 5823 5821 5819 5817 5815 5813 5810 5806 5803 5799 5797 5794 5791 5789 5786 5783 5780 5778 5775 5773 5771 5768 5766 5764 5762 5759 5757 5754 5752 5749 5745 5741 5739 5738 5737 5735 5735 5733 5732 5731 5731
5820 5818 5815 5813 5810 5809 5807 5805 5801 5798 5795 5792 5790 5787 5785 5783 5780 5777 5774 5771 5769 5766 5764 5761 5759 5757 5754 5752 5750 5747 5744 5740 5735 5730 5727 5724 5723 5722 5721 5720 5718 5716 5714
5812 5809 5806 5803 5801 5800 5799 5796 5793 5790 5787 5786 5784 5782 5779 5777 5774 5771 5768 5765 5763 5760 5757 5755 5752 5749 5748 5746 5742 5739 5735 5731 5727 5722 5718 5714 5712 5710 5707 5704 5702 5699 5698
5803 5798 5795 5793 5793 5793 5791 5788 5786 5784 5782 5780 5779 5776 5774 5771 5768 5765 5762 5759 5757 5754 5751 5748 5745 5742 5739 5736 5734 5730 5726 5721 5717 5712 5708 5706 5702 5698 5694 5688 5682 5678 5676
5791 5785 5783 5783 5784 5784 5783 5781 5779 5778 5777 5775 5774 5771 5768 5765 5762 5759 5757 5754 5751 5748 5745 5742 5738 5734 5731 5728 5725 5722 5718 5712 5706 5702 5699 5695 5690 5686 5680 5670 5661 5655 5653
5780 5776 5776 5776 5776 5776 5776 5775 5774 5773 5772 5770 5768 5765 5762 5759 5757 5754 5751 5748 5745 5741 5738 5735 5731 5727 5723 5720 5716 5713 5710 5707 5703 5695 5688 5684 5679 5675 5667 5657 5650 5645 5640
5778 5775 5773 5773 5772 5771 5771 5771 5770 5768 5767 5764 5762 5759 5756 5754 5751 5748 5745 5741 5738 5735 5731 5727 5723 5719 5715 5711 5706 5702 5698 5695 5693 5690 5681 5674 5668 5663 5656 5648 5642 5638 5634
5776 5773 5770 5769 5768 5767 5767 5766 5764 5763 5761 5758 5756 5753 5750 5748 5745 5741 5738 5734 5731 5727 5723 5719 5715 5712 5708 5704 5700 5694 5688 5683 5679 5677 5674 5666 5659 5654 5648 5639 5635 5631 5629
5775 5771 5769 5767 5765 5764 5763 5761 5759 5757 5755 5753 5750 5748 5745 5742 5738 5735 5731 5727 5723 5719 5715 5711 5707 5704 5700 5696 5691 5687 5682 5676 5669 5665 5662 5657 5651 5646 5641 5634 5625 5623 5621